Location: *
(58.7167°N, 26.1833°E)
Time: 11:22:48
(UTC+00:00)

Cosmos 1833 Rocket - Pass Details

Date: 25 August 2019
Orbit: 834 x 838 km, 71.0° (Epoch: 20 October)

Event Time Altitude Azimuth Distance (km) Brightness Sun altitude
Rises 21:05:20 0° 244° (WSW) 3,387 5.8 -19.1°
Reaches altitude 10° 21:07:54 10° 251° (WSW) 2,454 5.1 -19.2°
Maximum altitude 21:13:16 45° 323° (NW) 1,142 3.8 -19.5°
Drops below altitude 10° 21:18:41 10° 36° (NE) 2,461 5.6 -19.6°
Sets 21:21:15 0° 43° (NE) 3,397 6.3 -19.7°
